User: anonymous   Login
Location: Gouy
(50.0008°N, 3.2556°E)
Time: 03:03:06
(UTC+00:00)
Language:

CZ-2C R/B - Orbit

View from above orbital plane
View from above orbital plane
View from above satellite
View from above satellite

Ground track
Ground track

The orbit data is extracted from the following two-line orbital elements,

1 31114U 07010B   24200.61626075  .00000482  00000-0  24249-3 0  9997
2 31114  98.3365 334.8540 0058412 236.2895 123.2707 14.19815010894696
Epoch (UTC): 18 July 2024 14:47:24
Eccentricity: 0.0058412
inclination: 98.3365°
perigee height: 784 km
apogee height: 868 km
right ascension of ascending node: 334.8540°
argument of perigee: 236.2895°
revolutions per day: 14.19815010
mean anomaly at epoch: 123.2707°
orbit number at epoch: 89469

The dashed part of the orbit path shows where the satellite is in the earth's shadow,  

DLR